www.pogodaiklimat.ru

ПОГОДА в Лондоне, KY

  • Прогноз погоды в Лондоне
  • Монитор погоды в Лондоне
  • Климат в Лондоне

АРХИВ ПОГОДЫ в Лондоне

Время (UTC), дата Ветер
(напр.,м/с)
 
Видим.   Явления Облачность Т
(С)
Тd
(С)
f
(%)
Тe
(С)
Тes
(С)
Комфортность

P
(гПа)

Po
(гПа)
Тmin
(С)
Tmax
(С)
R
(мм)
SD
(см)
05:53 23.05   16 км    ясно  +17.8  +15.6  87  +18  +18    1019.3  976.7         
06:53 23.05   16 км    ясно  +17.2  +15.6  90  +17  +17    1019.7  977.0         
07:53 23.05   16 км    ясно  +17.2  +15.6  90  +17  +17    1020.1  977.3         
08:53 23.05   16 км    ясно  +16.7  +16.1  96  +17  +17    1020.8  977.9         
09:53 23.05   16 км    ясно  +17.2  +16.1  93  +17  +17    1021.7  978.9         
10:53 23.05 Ю  16 км    ясно  +19.4  +17.2  87  +22  +22  комфорт  1022.2  979.2  +16.1  +19.4     
11:53 23.05 ЮЗ  16 км    ясно  +21.1  +18.3  84  +25  +27  комфорт  1022.8  979.9         
12:53 23.05 ЮЗ  16 км    2/2 1500 м  +23.9  +20.6  82  +30  +32  очень
душно 
1022.9  979.9         
13:53 23.05 ЮЗ  4
{8} 
16 км    2/2 1800 м  +26.1  +19.4  67  +32  +37  очень
душно 
1022.8  979.9         
14:53 23.05 ЮЗ  16 км    ясно  +26.7  +20.0  67  +33  +42  очень
душно 
1023.1  980.2         
15:53 23.05 ЮЗ  5
{9} 
16 км    ясно  +28.3  +20.0  61  +35  +41  очень
душно 
1022.6  979.9         
16:53 23.05 ЮЗ  3
{8} 
16 км    2/2 1110 м  +29.4  +21.1  61  +37  +49  очень
душно 
1021.7  978.9  +19.4  +29.4     
17:53 23.05 ЮЗ  16 км    5/5 1320 м  +30.0  +19.4  53  +36  +41  очень
душно 
1020.9  978.3         
18:53 23.05 З  16 км    ясно  +30.6  +18.9  50  +36  +45  очень
душно 
1020.5  977.6         
19:53 23.05 ЮЗ  6
{10} 
16 км    ясно  +31.1  +17.2  43  +35  +39  очень
душно 
1020.4  977.6         
20:53 23.05 ЮЗ  16 км    ясно  +30.6  +16.1  42  +34  +38  очень
душно 
1019.6  977.0         
21:53 23.05 ЮЗ  16 км    ясно  +28.9  +16.7  48  +33  +36  очень
душно 
1019.6  976.7         
22:53 23.05 ЮЗ  16 км    ясно  +28.3  +17.8  53  +33  +35  очень
душно 
1019.2  976.3  +28.3  +31.7     
23:53 23.05 ЮЗ  16 км    ясно  +26.7  +18.3  60  +31  +32  душно  1019.6  977.0         
00:53 24.05 Ю  14 км    ясно  +23.9  +18.9  74  +29  +29  душно  1019.3  976.7         
01:53 24.05 ЮЗ  16 км    ясно  +23.3  +18.9  76  +30  +30  очень
душно 
1020.1  977.6         
02:53 24.05   16 км    ясно  +21.1  +18.9  87  +25  +25  комфорт  1020.1  977.3         
03:53 24.05   16 км    ясно  +20.0  +18.9  93  +23  +23  комфорт  1020.1  977.3         
04:53 24.05   16 км    ясно  +19.4  +18.3  93  +21  +21  комфорт  1019.9  977.3  +18.9  +28.3     
05:53 24.05   14 км    ясно  +18.9  +17.8  93  +20  +20    1019.4  976.7         
06:53 24.05   16 км    ясно  +17.8  +17.8  100  +18  +18    1019.4  976.7         
07:53 24.05   14 км    ясно  +17.2  +17.2  100  +17  +17    1019.6  977.0         
08:53 24.05   16 км    ясно  +17.8  +17.2  96  +18  +18    1019.9  977.3         
09:53 24.05   14 км    ясно  +17.8  +17.2  96  +18  +18    1020.6  977.9         
10:53 24.05   14 км    ясно  +19.4  +18.3  93  +21  +22  комфорт  1021.1  978.3  +16.7  +19.4     
11:53 24.05 ЮЗ  16 км    ясно  +22.2  +19.4  84  +28  +30  душно  1021.5  978.6         
12:53 24.05 ЮЗ  16 км    ясно  +25.6  +19.4  69  +31  +36  очень
душно 
1021.7  978.9         
13:53 24.05 З  16 км    ясно  +27.8  +19.4  60  +33  +40  очень
душно 
1021.7  978.9         
14:53 24.05 З  16 км    2/2 1290 м  +28.3  +19.4  59  +34  +41  очень
душно 
1021.5  978.9         
15:53 24.05 ЮЗ  6
{10} 
16 км    2/2 1500 м  +30.0  +17.2  46  +34  +38  очень
душно 
1021.3  978.6         
16:53 24.05 ЮЗ  6
{10} 
16 км    5/5 1800 м  +30.6  +17.8  46  +35  +38  очень
душно 
1020.9  978.3  +19.4  +30.6     
17:53 24.05 ЮЗ  5
{10} 
16 км    2/2 1950 м  +31.1  +16.7  42  +34  +41  душно  1020.4  977.6         
18:53 24.05 ЮЗ  16 км    ясно  +31.1  +17.8  45  +35  +46  очень
душно 
1020.3  977.6         
19:53 24.05 ЮЗ  16 км    ясно  +31.1  +17.8  45  +35  +44  очень
душно 
1019.8  977.0         
20:53 24.05 З  16 км    2/2 1650 м  +30.6  +18.3  48  +35  +40  очень
душно 
1019.8  977.0         
21:53 24.05 З  16 км    5/0 2550 м
[средняя] 
+30.0  +19.4  53  +36  +39  очень
душно 
1019.6  977.0         
22:53 24.05 З  16 км    ясно  +29.4  +18.9  53  +35  +37  очень
душно 
1019.2  976.7  +29.4  +31.7     
23:53 24.05   16 км    ясно  +26.7  +21.1  71  +34  +34  очень
душно 
1018.9  976.3         
00:53 25.05 ЮВ  16 км    ясно  +24.4  +20.6  79  +30  +30  очень
душно 
1018.4  975.7         
01:53 25.05   16 км    ясно  +23.3  +20.6  85  +31  +31  очень
душно 
1018.2  975.7         
02:53 25.05   16 км    ясно  +22.2  +20.0  87  +28  +28  душно  1018.0  975.4         
03:53 25.05   14 км    ясно  +21.1  +20.0  93  +26  +26  душно  1017.9  975.4         
04:53 25.05   16 км    ясно  +20.6  +19.4  93  +25  +25  комфорт  1018.5  976.0  +20.6  +29.4     

 

Местоположение метеостанции London-Corbin Airport-Magee Field: широта 37.0894 долгота -84.0686 высота над уровнем моря 369 м.

В архиве по умолчанию представлена погода в Лондоне за последние 1-2 суток. Обновление информации о фактической погоде в базе происходит ежечасно! Архивные данные за месяц целиком и за предыдущие месяцы Вы можете получить, выбрав интересующий диапазон дат из раскрывающегося списка и нажав кнопку "Ввод!".

Внимание! Архив погоды МЕТАР в базе сайта хранится не более 60 дней. Нет смысла пытаться выбрать более раннюю дату.

Внимание! Время в таблицах - всемирное. Для получения местного времени необходимо прибавить поправку, которая в Лондоне равна -5 ч.

Ветер - указаны скорость ветра в м/с и направление, откуда дует ветер: С - северный, СВ - северо-восточный, В - восточный, ЮВ - юго-восточный, Ю - южный, ЮЗ - юго-западный, З - западный, СЗ - северо-западный.
Видимость - горизонтальная дальность видимости в метрах или километрах. При видимости от 1 до 10 км при отсутствии осадков обычно наблюдается дымка, при ухудшении видимости до 1 км и менее - туман. В сухую погоду видимость может ухудшаться дымом, пылью или мглою.
Атмосферные явления - указаны явления, наблюдавшиеся в указанный момент времени.
Облачность - указаны через наклонную черту верхняя и нижняя облачность в баллах и высота нижней границы облаков в метрах. Внимание: облачность, как и прочие метеорологические величины в США измеряются автоматическими метеостанциями. Указанные значения в баллах носят условный характер и показывают процент времени, в течение которого, в среднем, лазерный луч высотомера отражался от облаков обратно.
T - Температура воздуха - температура, измеренная на высоте 2 м над землей.
Td - Температура точки росы - температура, при понижении до которой содержащийся в воздухе водяной пар достигнет насыщения.
f - Относительная влажность воздуха - влажноcть воздуха, измеренная на высоте 2 м над землей.
Te - Эффективная температура - температура, которую ощущает одетый по сезону человек в тени. Характеристика душности погоды. При расчете учитывается влияние влажности воздуха и скорости ветра на теплоощущения человека.
Tes - Эффективная температура на солнце - температура, которую ощущает человек, с поправкой на солнечный нагрев. Характеристика знойности погоды. Зависит от высоты солнца над горизонтом, облачности и скорости ветра. Ночью, в пасмурную погоду, а также при ветре 12 м/с и более поправка равна нулю.
P - Атмосферное давление - приведенное к уровню моря атмосферное давление.
Po - Атмосферное давление - измеренное на уровне метеостанции атмосферное давление.
Tmin - Минимальная температура - минимум температуры воздуха на высоте 2 м над землей.
Tmax - Максимальная температура - максимум температуры воздуха на высоте 2 м над землей.
R - Количество осадков - Количество выпавших осадков за 3 или 6 часов, мм.
SD - Снежный покров - Высота снежного покрова, см.